When you browse on this site, cookies collect data to enhance your experience and personalize the content and advertising you see.
Visit our Privacy Policy to learn more. By continuing to use the site, you agree to this use of cookies and data.
  • In United Kingdom
  • List of Countries
  • For 7 days
  • Water Temperature
  • Weather Map
  • Weather Widgets
  • user-avatar
    Login

    Hourly Weather Kerns

    Today, 11 December, Wednesday

    Time Temperature Precipitation Wind Pressure Humidity
    00:00 +26°C° 0.2 mm 4 mps 757 mmHg 95%
    01:00 +26°C° 0.2 mm 4 mps 757 mmHg 97%
    02:00 +26°C° 0.1 mm 4 mps 756 mmHg 97%
    03:00 +25°C° 0.1 mm 4 mps 756 mmHg 97%
    04:00 +25°C° 0.1 mm 4 mps 755 mmHg 98%
    05:00 +26°C° 0 mm 4 mps 756 mmHg 94%
    06:00 +27°C° 0 mm 4 mps 756 mmHg 91%
    07:00 +27°C° 0 mm 4 mps 757 mmHg 88%
    08:00 +30°C° 0 mm 5 mps 757 mmHg 77%
    09:00 +33°C° 0 mm 5 mps 757 mmHg 67%
    10:00 +35°C° 0 mm 6 mps 757 mmHg 57%
    11:00 +35°C° 0 mm 6 mps 756 mmHg 55%
    12:00 +36°C° 0 mm 6 mps 756 mmHg 54%
    13:00 +36°C° 0 mm 6 mps 755 mmHg 52%
    14:00 +36°C° 0.1 mm 6 mps 755 mmHg 54%
    15:00 +35°C° 0.1 mm 6 mps 755 mmHg 57%
    16:00 +34°C° 0.1 mm 6 mps 755 mmHg 60%
    17:00 +33°C° 0.1 mm 5 mps 755 mmHg 68%
    18:00 +30°C° 0.1 mm 5 mps 755 mmHg 76%
    19:00 +28°C° 0.1 mm 4 mps 756 mmHg 85%
    20:00 +27°C° 0.1 mm 4 mps 756 mmHg 88%
    21:00 +27°C° 0.1 mm 4 mps 756 mmHg 92%
    22:00 +26°C° 0.1 mm 4 mps 757 mmHg 96%
    23:00 +26°C° 0 mm 4 mps 756 mmHg 96%

    Tomorrow, 12 December, Thursday

    Time Temperature Precipitation Wind Pressure Humidity
    00:00 +26°C° 0 mm 4 mps 756 mmHg 96%
    01:00 +26°C° 0 mm 4 mps 755 mmHg 96%
    02:00 +26°C° 0.1 mm 3 mps 755 mmHg 95%
    03:00 +26°C° 0.1 mm 3 mps 755 mmHg 95%
    04:00 +26°C° 0.1 mm 3 mps 755 mmHg 95%
    05:00 +27°C° 0.1 mm 3 mps 755 mmHg 92%
    06:00 +27°C° 0.1 mm 4 mps 756 mmHg 89%
    07:00 +28°C° 0.1 mm 4 mps 756 mmHg 86%
    08:00 +30°C° 0.1 mm 4 mps 756 mmHg 76%
    09:00 +33°C° 0.1 mm 4 mps 756 mmHg 66%
    10:00 +35°C° 0.1 mm 5 mps 756 mmHg 55%
    11:00 +36°C° 0.1 mm 5 mps 756 mmHg 53%
    12:00 +36°C° 0.1 mm 5 mps 755 mmHg 51%
    13:00 +37°C° 0.1 mm 5 mps 755 mmHg 49%
    14:00 +36°C° 0.1 mm 5 mps 755 mmHg 51%
    15:00 +36°C° 0.1 mm 5 mps 754 mmHg 53%
    16:00 +35°C° 0.1 mm 5 mps 754 mmHg 55%
    17:00 +33°C° 0.1 mm 5 mps 755 mmHg 66%
    18:00 +30°C° 0.1 mm 4 mps 756 mmHg 77%
    19:00 +28°C° 0.1 mm 4 mps 756 mmHg 88%
    20:00 +27°C° 0.2 mm 4 mps 756 mmHg 91%
    21:00 +27°C° 0.2 mm 3 mps 757 mmHg 94%
    22:00 +26°C° 0.2 mm 3 mps 757 mmHg 97%
    23:00 +26°C° 0 mm 3 mps 757 mmHg 97%

    Day after tomorrow, 13 December, Friday

    Time Temperature Precipitation Wind Pressure Humidity
    00:00 +25°C° 0 mm 3 mps 756 mmHg 98%
    01:00 +25°C° 0 mm 3 mps 756 mmHg 98%
    02:00 +25°C° 0 mm 3 mps 756 mmHg 98%
    03:00 +24°C° 0 mm 3 mps 756 mmHg 98%
    04:00 +24°C° 0 mm 3 mps 756 mmHg 98%
    05:00 +25°C° 0 mm 2 mps 756 mmHg 93%
    06:00 +26°C° 0 mm 2 mps 756 mmHg 88%
    07:00 +27°C° 0 mm 1 mps 757 mmHg 84%
    08:00 +30°C° 0 mm 2 mps 757 mmHg 67%
    09:00 +34°C° 0 mm 2 mps 757 mmHg 51%
    10:00 +37°C° 0 mm 2 mps 757 mmHg 35%
    11:00 +38°C° 0 mm 3 mps 757 mmHg 34%
    12:00 +38°C° 0 mm 3 mps 756 mmHg 33%
    13:00 +39°C° 0 mm 3 mps 756 mmHg 32%
    14:00 +38°C° 0 mm 3 mps 755 mmHg 35%
    15:00 +37°C° 0 mm 3 mps 755 mmHg 38%
    16:00 +36°C° 0 mm 3 mps 754 mmHg 41%
    17:00 +34°C° 0 mm 3 mps 755 mmHg 53%
    18:00 +30°C° 0 mm 2 mps 755 mmHg 65%
    19:00 +27°C° 0 mm 2 mps 756 mmHg 78%
    20:00 +26°C° 0 mm 2 mps 756 mmHg 83%
    21:00 +25°C° 0 mm 1 mps 757 mmHg 88%
    22:00 +24°C° 0 mm 1 mps 757 mmHg 93%
    23:00 +24°C° 0 mm 1 mps 756 mmHg 92%

    14 December, Saturday

    Time Temperature Precipitation Wind Pressure Humidity
    00:00 +24°C° 0 mm 1 mps 756 mmHg 92%
    01:00 +23°C° 0 mm 1 mps 756 mmHg 91%
    02:00 +23°C° 0 mm 1 mps 755 mmHg 90%
    03:00 +23°C° 0 mm 1 mps 755 mmHg 88%
    04:00 +23°C° 0 mm 1 mps 755 mmHg 86%
    05:00 +24°C° 0 mm 1 mps 756 mmHg 78%
    06:00 +25°C° 0 mm 1 mps 757 mmHg 70%
    07:00 +27°C° 0 mm 1 mps 757 mmHg 62%
    08:00 +31°C° 0 mm 1 mps 757 mmHg 50%
    09:00 +36°C° 0 mm 2 mps 757 mmHg 38%
    10:00 +40°C° 0 mm 2 mps 757 mmHg 25%
    11:00 +40°C° 0 mm 2 mps 757 mmHg 27%
    12:00 +40°C° 0 mm 2 mps 756 mmHg 28%
    13:00 +40°C° 0 mm 3 mps 755 mmHg 29%
    14:00 +39°C° 0 mm 3 mps 755 mmHg 33%
    15:00 +38°C° 0 mm 3 mps 754 mmHg 37%
    16:00 +36°C° 0 mm 2 mps 753 mmHg 41%
    17:00 +34°C° 0 mm 2 mps 754 mmHg 53%
    18:00 +30°C° 0 mm 1 mps 754 mmHg 65%
    19:00 +27°C° 0 mm 1 mps 755 mmHg 77%
    20:00 +27°C° 0 mm 1 mps 756 mmHg 79%
    21:00 +26°C° 0 mm 1 mps 756 mmHg 81%
    22:00 +24°C° 0 mm 0 mps 757 mmHg 84%
    23:00 +23°C° 0 mm 0 mps 757 mmHg 85%

    15 December, Sunday

    Time Temperature Precipitation Wind Pressure Humidity
    00:00 +23°C° 0 mm 0 mps 756 mmHg 87%
    01:00 +22°C° 0 mm 0 mps 756 mmHg 89%
    02:00 +24°C° 0 mm 1 mps 755 mmHg 90%
    03:00 +24°C° 0 mm 1 mps 755 mmHg 92%
    04:00 +23°C° 0 mm 1 mps 755 mmHg 93%
    05:00 +25°C° 0 mm 1 mps 755 mmHg 85%
    06:00 +26°C° 0 mm 1 mps 756 mmHg 77%
    07:00 +28°C° 0 mm 1 mps 756 mmHg 68%
    08:00 +31°C° 0 mm 1 mps 756 mmHg 55%
    09:00 +35°C° 0 mm 1 mps 756 mmHg 41%
    10:00 +39°C° 0 mm 1 mps 756 mmHg 28%
    11:00 +39°C° 0 mm 2 mps 756 mmHg 29%
    12:00 +39°C° 0 mm 2 mps 755 mmHg 31%
    13:00 +39°C° 0 mm 3 mps 755 mmHg 33%
    14:00 +38°C° 0 mm 3 mps 755 mmHg 38%
    15:00 +36°C° 0 mm 3 mps 754 mmHg 44%
    16:00 +35°C° 0 mm 3 mps 754 mmHg 49%
    17:00 +32°C° 0 mm 2 mps 754 mmHg 58%
    18:00 +30°C° 0 mm 2 mps 755 mmHg 68%
    19:00 +28°C° 0 mm 1 mps 755 mmHg 78%
    20:00 +27°C° 0 mm 1 mps 755 mmHg 82%
    21:00 +26°C° 0 mm 1 mps 756 mmHg 87%
    22:00 +26°C° 0 mm 1 mps 757 mmHg 92%
    23:00 +25°C° 0 mm 1 mps 756 mmHg 93%

    16 December, Monday

    Time Temperature Precipitation Wind Pressure Humidity
    00:00 +25°C° 0 mm 1 mps 756 mmHg 94%
    01:00 +25°C° 0 mm 1 mps 756 mmHg 95%
    02:00 +25°C° 0 mm 1 mps 755 mmHg 95%
    03:00 +25°C° 0 mm 1 mps 755 mmHg 95%
    04:00 +25°C° 0 mm 1 mps 755 mmHg 95%
    05:00 +26°C° 0 mm 1 mps 756 mmHg 90%
    06:00 +27°C° 0 mm 1 mps 756 mmHg 85%
    07:00 +28°C° 0 mm 1 mps 757 mmHg 79%
    08:00 +31°C° 0 mm 1 mps 757 mmHg 67%
    09:00 +33°C° 0 mm 1 mps 757 mmHg 54%
    10:00 +37°C° 0 mm 2 mps 757 mmHg 41%
    11:00 +37°C° 0 mm 2 mps 756 mmHg 41%
    12:00 +38°C° 0 mm 2 mps 756 mmHg 40%
    13:00 +38°C° 0 mm 3 mps 755 mmHg 40%
    14:00 +37°C° 0 mm 3 mps 755 mmHg 43%
    15:00 +37°C° 0 mm 3 mps 754 mmHg 46%
    16:00 +36°C° 0 mm 3 mps 754 mmHg 49%
    17:00 +33°C° 0 mm 3 mps 754 mmHg 58%
    18:00 +30°C° 0 mm 3 mps 755 mmHg 67%
    19:00 +28°C° 0 mm 2 mps 755 mmHg 77%
    20:00 +27°C° 0 mm 2 mps 756 mmHg 82%
    21:00 +27°C° 0 mm 2 mps 756 mmHg 88%
    22:00 +26°C° 0 mm 2 mps 757 mmHg 94%
    23:00 +26°C° 0 mm 2 mps 756 mmHg 93%
    Show more